Time,TemperatureF,DewpointF,PressureIn,WindDirection,WindDirectionDegrees,WindSpeedMPH,WindSpeedGustMPH,Humidity,HourlyPrecipIn,Conditions,Clouds,dailyrainin,SoftwareType,DateUTC
2013-01-08 00:00:00,48.0,-99.9,-100.00,SE,145,2.0,-999.0,-999,-99.99,,,-99.99,,2013-01-08 08:00:00,
2013-01-08 01:00:00,48.0,-99.9,-100.00,SSE,157,2.0,-999.0,-999,-99.99,,,-99.99,,2013-01-08 09:00:00,
2013-01-08 02:00:00,48.0,-99.9,-100.00,South,188,3.0,-999.0,-999,-99.99,,,-99.99,,2013-01-08 10:00:00,
2013-01-08 03:00:00,47.0,-99.9,-100.00,SSW,195,5.0,-999.0,-999,-99.99,,,-99.99,,2013-01-08 11:00:00,
2013-01-08 04:00:00,47.0,-99.9,-100.00,South,171,3.0,-999.0,-999,-99.99,,,-99.99,,2013-01-08 12:00:00,
2013-01-08 04:53:00,47.0,-99.9,-100.00,South,171,3.0,-999.0,-999,-99.99,,,-99.99,,2013-01-08 12:53:00,
2013-01-08 05:00:00,47.0,-99.9,-100.00,SSE,158,3.0,-999.0,-999,-99.99,,,-99.99,,2013-01-08 13:00:00,
2013-01-08 07:00:00,45.0,-99.9,-100.00,SE,137,2.0,-999.0,-999,-99.99,,,-99.99,,2013-01-08 15:00:00,
2013-01-08 08:00:00,44.0,-99.9,-100.00,ESE,118,2.0,-999.0,-999,-99.99,,,-99.99,,2013-01-08 16:00:00,
2013-01-08 09:00:00,44.0,-99.9,-100.00,SE,128,1.0,-999.0,-999,-99.99,,,-99.99,,2013-01-08 17:00:00,
2013-01-08 10:00:00,44.0,-99.9,-100.00,ESE,103,2.0,-999.0,-999,-99.99,,,-99.99,,2013-01-08 18:00:00,
2013-01-08 11:00:00,43.0,-99.9,-100.00,SE,133,2.0,-999.0,-999,-99.99,,,-99.99,,2013-01-08 19:00:00,
2013-01-08 12:00:00,44.0,-99.9,-100.00,SSE,166,5.0,-999.0,-999,-99.99,,,-99.99,,2013-01-08 20:00:00,
2013-01-08 13:00:00,45.0,-99.9,-100.00,SSE,156,5.0,-999.0,-999,-99.99,,,-99.99,,2013-01-08 21:00:00,
2013-01-08 14:00:00,47.0,-99.9,-100.00,SSE,164,5.0,-999.0,-999,-99.99,,,-99.99,,2013-01-08 22:00:00,
2013-01-08 14:53:00,47.0,-99.9,-100.00,SSE,164,5.0,-999.0,-999,-99.99,,,-99.99,,2013-01-08 22:53:00,
2013-01-08 16:00:00,51.0,-99.9,-100.00,ENE,75,5.0,-999.0,-999,-99.99,,,-99.99,,2013-01-09 00:00:00,
2013-01-08 17:00:00,53.0,-99.9,-100.00,North,2,5.0,-999.0,-999,-99.99,,,-99.99,,2013-01-09 01:00:00,
2013-01-08 18:00:00,53.0,-99.9,-100.00,South,185,6.0,-999.0,-999,-99.99,,,-99.99,,2013-01-09 02:00:00,
2013-01-08 18:53:00,53.0,-99.9,-100.00,South,185,6.0,-999.0,-999,-99.99,,,-99.99,,2013-01-09 02:53:00,
2013-01-08 19:00:00,53.0,-99.9,-100.00,South,190,6.0,-999.0,-999,-99.99,,,-99.99,,2013-01-09 03:00:00,
2013-01-08 20:00:00,53.0,-99.9,-100.00,SSE,167,5.0,-999.0,-999,-99.99,,,-99.99,,2013-01-09 04:00:00,
2013-01-08 23:00:00,51.0,-99.9,-100.00,SSE,161,5.0,-999.0,-999,-99.99,,,-99.99,,2013-01-09 07:00:00,
2013-01-08 23:53:00,51.0,-99.9,-100.00,SSE,161,5.0,-999.0,-999,-99.99,,,-99.99,,2013-01-09 07:53:00,